Find Starlink 1169

NORAD ID: 45061 Int'l Des: 2020-006 Owner: SPXS Country: US Constellation: starlink operational
LEOCIRCULAR

リアルタイム位置

3D地球を読み込み中...

Starlink 1169について

説明を読み込み中...

次回通過

Passes for default location (London). Set your location on the main map for personalized predictions.

高度履歴

Loading altitude history...

軌道要素

1 45061U 20006T 26120.97673900 .00056071 00000-0 16442-2 0 9994
2 45061 53.1590 37.4086 0004110 126.4932 233.6450 15.34664359344563
Epoch: Apr 30, 2026 • Age: 22 hours

現在のステータス

高度 465.4 km
速度 7.64 km/s
衛星直下点 52.04°N, 45.89°W
打ち上げ日 Jan 29, 2020
運用期間 6.2 years
タイプ internet

技術仕様

分類 Payload
質量 260.00 kg
乾燥質量 248.00 kg
総質量 260.00 kg
長さ 0.20 m
直径 2.80 m
スパン 9.00 m
形状 Box + pan
製造者 SPXS
バスタイプ Starlink
フェーズステータス In Orbit
所有者/国 SPXS/US

Most Searched